Weather Roundup
Issued by NWS Chicago, IL

Home | Current Version | Previous Version | Graphics & Text | Print | Product List | Glossary On
Versions: 1 2 3 4 5 6 7 8 9 10 11 12 13 14 15 16 17 18 19 20 21 22 23 24 25 26 27 28 29 30 31 32 33 34 35 36 37 38 39 40 41 42 43 44 45 46 47 48 49 50
000
NZUS59 KLOT 290810
HRRLOT

CHICAGO AREA WEATHER ROUNDUP
NATIONAL WEATHER SERVICE CHICAGO/ROMEOVILLE IL
300 AM CDT TUE JUL 29 2014

NOTE: "FAIR" INDICATES FEW OR NO CLOUDS BELOW 12,000 FEET WITH NO
SIGNIFICANT WEATHER AND/OR OBSTRUCTIONS TO VISIBILITY.

* THESE STATIONS ARE NOT UNDER NWS QUALITY CONTROL. THEY ALSO MAY NOT
  REPORT WEATHER SUCH AS PRECIPITATION OR FOG.

ILZ005-006-012>014-019>023-290900-
NORTHEAST ILLINOIS

CITY           SKY/WX    TMP DP  RH WIND       PRES   REMARKS
OHARE          CLEAR     62  51  67 NW6       30.03F
MIDWAY         CLEAR     62  53  72 CALM      30.03F
AURORA         CLEAR     55  51  86 NW5       30.06S
LANSING*       CLEAR     55  51  87 S3        30.04S
JOLIET*        CLEAR     59  51  75 CALM      30.06S
WAUKEGAN       CLEAR     55  52  89 CALM      30.03F
DUPAGE AIRPORT CLEAR     60  53  77 NW6       30.04S
WHEELING       PTCLDY    59  53  80 CALM      30.05S
KANKAKEE*      MOCLDY    56  53  91 W3        30.05F
MORRIS*        MOCLDY    58  55  87 NW6       30.04F
LEWIS AIRPORT* CLEAR     57  52  84 NW5       30.04F
NORTHERLY IS     N/A     60  52  74 S3          N/A
$$

WIZ051-052-058>065-066-070>072-290900-
SOUTHEAST WISCONSIN

CITY           SKY/WX    TMP DP  RH WIND       PRES   REMARKS
MILWAUKEE      MOCLDY    62  54  74 W6        30.02F
KENOSHA*       MOCLDY    56  53  90 W5        30.03F
RACINE*        PTCLDY    58  53  84 W5        30.04F
BURLINGTON     PTCLDY    56  53  88 NW6       30.03F
WAUKESHA       PTCLDY    57  52  82 W6        30.03F
WEST BEND      CLOUDY    59  54  82 W6        30.02F
$$

INZ001>003-010>013-019-020-290900-
NORTHWEST INDIANA

CITY           SKY/WX    TMP DP  RH WIND       PRES   REMARKS
GARY*          CLEAR     58  55  89 CALM      30.05S
MICHIGAN CITY* NOT AVBL
RENSSELAER*    NOT AVBL
VALPARAISO     CLEAR     52  50  93 CALM      30.04F
$$

LMZ740>746-290900-
SOUTHERN LAKE MICHIGAN

STATION/POSITION TIME  SKY/WX   TEMP WIND        PRES    VSBY
                                AIR  DIR/SP/G
                 (UTC)          (F)  (DEG/KT/KT) (MB)    (MI)
HARRISON CRIB    0800            63  180/  6/  7   N/A
BURNHAM HARBOR   0800            61  190/  2/  4   N/A
CALUMET HARBOR   0800            61  180/  3/  3 1015.8F
BURNS HARBOR     NOT AVBL
MICHIGAN CITY    0800            59  130/  4/  5   N/A
$$

ABBREVIATIONS USED IN REMARKS
   TC - TEMPERATURE IN CELSIUS
  WCI - WIND CHILL INDEX
   HX - HEAT INDEX
  VSB - VISIBILITY
$$



USA.gov is the U.S. government's official web portal to all federal, state and local government web resources and services.